Location: *
(51.0333°S, 178.4667°E)
Time: 08:25:08
(UTC+00:00)

CZ-4 R/B - Visible Passes

Search period start: 21 January 2021 00:00
Search period end: 31 January 2021 00:00
Orbit: 532 x 597 km, 97.7° (Epoch: 20 January)

Date Brightness Start Highest point End Pass type
(mag) Time Alt. Az. Time Alt. Az. Time Alt. Az.
21 Jan 4.8 09:26:40 10° SSW 09:28:49 14° SW 09:30:58 10° W visible
22 Jan 4.8 09:26:58 10° SSW 09:29:07 14° SW 09:31:16 10° W visible
23 Jan 4.8 09:27:17 10° SSW 09:29:25 14° SW 09:31:33 10° W visible
24 Jan 4.8 09:27:35 10° SSW 09:29:43 14° SW 09:31:51 10° W visible
25 Jan 4.8 09:27:54 10° SSW 09:30:00 14° SW 09:32:07 10° W visible
26 Jan 4.8 09:28:12 10° SSW 09:30:18 13° SW 09:32:25 10° W visible
27 Jan 4.8 09:28:31 10° SSW 09:30:36 13° SW 09:32:41 10° W visible
28 Jan 4.8 09:28:49 10° SSW 09:30:54 13° SW 09:32:58 10° W visible
29 Jan 4.8 09:29:08 10° SSW 09:31:11 13° SW 09:33:14 10° W visible
30 Jan 4.8 09:29:26 10° SSW 09:31:29 13° SW 09:33:31 10° W visible
